Temperature
-4 -3 -4 -4 -4 -4 -5 -5 -4 -4 -4 -3 -4 -4 -3 -3 -3 -3 -3 -3 -3 -4 -4 -4 -3 -3 -3 -3 -3 -3 -3 -3 -2 -2 -2 -2 -1 -1 -1 -1 -1 -0 0 1
-5 -4 -4 -4 -4 -4 -4 -5 -5 -5 -4 -4 -4 -4 -4 -3 -3 -4 -4 -4 -4 -4 -4 -4 -4 -4 -4 -3 -3 -3 -3 -3 -3 -3 -3 -2 -2 -2 -2 -1 -1 -1 -0 -0
-5 -5 -4 -4 -4 -5 -5 -6 -6 -5 -4 -5 -5 -5 -4 -4 -4 -4 -4 -4 -4 -5 -5 -5 -4 -4 -4 -4 -4 -4 -4 -4 -4 -3 -3 -3 -3 -2 -2 -2 -1 -1 -1 -1
-5 -5 -4 -2 -4 -5 -5 -6 -6 -6 -6 -5 -5 -4 -4 -3 -4 -4 -4 -5 -5 -5 -5 -5 -5 -5 -5 -5 -5 -5 -4 -4 -4 -4 -4 -3 -3 -3 -3 -3 -2 -2 -1 -1
-6 -6 -5 -4 -4 -6 -5 -5 -6 -6 -6 -5 -5 -5 -4 -4 -4 -4 -5 -5 -5 -6 -6 -5 -5 -5 -5 -5 -5 -5 -5 -5 -5 -5 -4 -4 -4 -3 -3 -3 -3 -3 -2 -2
-6 -5 -4 -3 -5 -5 -5 -5 -5 -6 -6 -6 -6 -7 -6 -4 -5 -5 -5 -6 -6 -6 -6 -6 -6 -6 -6 -6 -6 -6 -6 -6 -5 -5 -5 -5 -4 -4 -4 -4 -4 -3 -3 -3
-7 -7 -5 -5 -6 -5 -5 -4 -4 -5 -5 -6 -7 -6 -5 -5 -5 -6 -6 -6 -6 -6 -6 -6 -6 -6 -6 -6 -6 -6 -6 -6 -6 -6 -6 -5 -5 -5 -5 -5 -4 -4 -4 -3
-8 -7 -5 -5 -6 -6 -5 -4 -4 -4 -5 -5 -5 -5 -6 -6 -6 -6 -6 -7 -7 -7 -7 -7 -7 -7 -7 -7 -7 -7 -7 -7 -6 -6 -6 -6 -6 -6 -5 -5 -5 -5 -4 -4
-7 -5 -4 -5 -5 -4 -4 -4 -4 -5 -5 -6 -6 -6 -6 -6 -7 -7 -7 -7 -7 -7 -7 -7 -7 -7 -7 -7 -7 -7 -7 -7 -7 -7 -7 -7 -6 -6 -6 -6 -6 -5 -5 -5
-7 -7 -6 -5 -4 -4 -5 -5 -5 -5 -6 -6 -6 -7 -7 -7 -7 -7 -8 -8 -8 -8 -8 -8 -8 -8 -8 -8 -8 -8 -8 -7 -7 -7 -7 -7 -7 -7 -7 -7 -6 -6 -6 -6
-8 -8 -6 -5 -5 -5 -5 -5 -6 -6 -6 -7 -7 -7 -7 -8 -8 -8 -8 -8 -8 -9 -9 -8 -8 -8 -8 -8 -8 -8 -8 -8 -8 -8 -8 -7 -7 -7 -7 -7 -7 -7 -7 -7
-6 -6 -6 -5 -4 -5 -6 -6 -6 -7 -7 -7 -7 -8 -8 -8 -8 -8 -9 -9 -9 -9 -9 -9 -9 -9 -8 -8 -8 -8 -8 -8 -8 -8 -8 -8 -8 -8 -7 -8 -7 -7 -7 -7
-5 -5 -5 -5 -5 -6 -6 -7 -7 -7 -7 -8 -8 -8 -8 -8 -9 -9 -9 -9 -9 -9 -9 -9 -9 -9 -9 -9 -9 -9 -9 -9 -9 -9 -9 -8 -8 -8 -8 -8 -8 -8 -8 -8
-6 -6 -6 -6 -6 -6 -7 -7 -7 -7 -8 -8 -8 -8 -9 -9 -9 -9 -9 -10 -10 -10 -10 -10 -10 -9 -9 -9 -9 -9 -9 -9 -9 -9 -9 -9 -9 -9 -9 -9 -9 -8 -8 -8
-6 -7 -7 -7 -7 -7 -7 -7 -8 -8 -8 -8 -9 -9 -9 -9 -9 -10 -10 -10 -10 -10 -10 -10 -10 -10 -10 -10 -10 -9 -9 -9 -10 -10 -10 -9 -9 -9 -10 -9 -9 -9 -9 -8
-7 -7 -7 -7 -7 -8 -8 -8 -8 -8 -9 -9 -9 -9 -9 -10 -10 -10 -10 -10 -10 -10 -10 -10 -10 -10 -10 -10 -10 -10 -10 -10 -10 -10 -10 -10 -10 -10 -10 -10 -10 -9 -9 -9
-8 -8 -8 -8 -8 -8 -8 -8 -9 -9 -9 -9 -9 -9 -10 -10 -10 -10 -10 -10 -11 -11 -11 -11 -11 -11 -10 -10 -10 -10 -10 -10 -10 -10 -10 -10 -10 -10 -10 -10 -10 -10 -10 -10
-8 -8 -8 -8 -8 -9 -9 -9 -9 -9 -9 -9 -10 -10 -10 -10 -10 -10 -11 -11 -11 -11 -11 -11 -11 -11 -11 -11 -11 -11 -11 -11 -11 -11 -11 -11 -11 -11 -11 -11 -10 -10 -10 -10
-8 -8 -8 -8 -9 -9 -9 -9 -9 -10 -10 -10 -10 -10 -10 -10 -11 -11 -11 -11 -11 -11 -11 -11 -11 -11 -11 -11 -11 -11 -11 -11 -11 -11 -11 -11 -11 -11 -11 -11 -11 -10 -10 -10
-8 -8 -8 -9 -9 -9 -9 -9 -10 -10 -10 -10 -10 -10 -10 -11 -11 -11 -11 -11 -11 -12 -12 -11 -11 -11 -11 -11 -11 -12 -11 -11 -11 -11 -11 -11 -11 -11 -11 -11 -11 -11 -11 -11
-8 -9 -9 -9 -9 -9 -10 -10 -10 -10 -10 -10 -10 -11 -11 -11 -11 -11 -11 -11 -11 -12 -12 -12 -12 -12 -12 -12 -12 -12 -12 -12 -12 -12 -12 -12 -12 -12 -12 -12 -11 -11 -11 -11
-9 -9 -9 -9 -9 -10 -10 -10 -10 -10 -11 -11 -11 -11 -11 -11 -11 -12 -12 -12 -12 -12 -12 -12 -12 -12 -12 -12 -12 -12 -12 -12 -12 -12 -12 -12 -12 -12 -12 -12 -12 -12 -12 -12
-9 -9 -9 -9 -10 -10 -10 -10 -10 -11 -11 -11 -11 -11 -11 -11 -12 -12 -12 -12 -12 -12 -12 -12 -12 -12 -13 -13 -13 -13 -13 -13 -13 -13 -13 -13 -13 -13 -12 -12 -12 -12 -12 -12
-9 -9 -10 -10 -10 -10 -10 -10 -11 -11 -11 -11 -11 -12 -12 -12 -12 -12 -12 -12 -12 -12 -12 -12 -13 -13 -13 -13 -13 -13 -13 -13 -13 -13 -13 -13 -13 -13 -13 -13 -13 -13 -13 -12
-10 -10 -10 -10 -10 -10 -11 -11 -11 -11 -11 -11 -11 -12 -12 -12 -12 -12 -12 -13 -13 -13 -13 -13 -13 -13 -13 -13 -13 -13 -13 -13 -13 -13 -13 -13 -13 -13 -13 -13 -13 -13 -13 -13
-10 -10 -10 -11 -11 -11 -11 -11 -11 -11 -12 -12 -12 -12 -12 -12 -12 -12 -13 -13 -13 -13 -13 -13 -13 -13 -13 -13 -13 -13 -13 -13 -13 -13 -13 -13 -13 -13 -13 -13 -13 -13 -13 -13
-10 -10 -11 -11 -11 -11 -11 -12 -12 -12 -12 -12 -12 -12 -12 -13 -13 -13 -13 -13 -13 -13 -13 -13 -13 -13 -13 -13 -13 -13 -13 -13 -13 -13 -13 -13 -14 -14 -14 -14 -14 -13 -13 -13
Wind_Speed
8 7 5 8 9 8 10 10 9 10 11 15 9 8 8 7 7 7 7 7 7 7 7 7 8 7 7 7 7 6 5 5 6 6 6 5 6 5 5 4 5 4 4 4
5 5 6 9 11 10 11 10 12 12 15 11 8 6 6 7 7 7 8 8 8 8 8 8 8 7 7 8 7 6 6 6 6 6 6 6 6 5 5 5 4 4 4 4
4 4 4 8 8 8 6 6 8 11 12 6 6 7 8 7 7 8 9 8 8 8 8 8 8 7 7 8 6 6 6 6 6 6 6 6 6 5 5 4 4 4 4 4
3 3 6 7 2 6 7 7 9 9 8 6 8 7 7 6 6 7 8 8 8 8 9 8 7 7 7 6 5 5 6 6 6 6 6 6 5 5 5 5 4 4 4 4
2 3 8 8 3 3 5 6 7 9 10 8 6 5 5 4 5 6 7 7 7 7 8 7 7 7 6 6 5 5 6 6 6 6 5 5 5 5 5 4 4 4 4 4
3 3 7 6 2 1 2 5 4 5 7 5 2 4 6 4 5 6 6 6 7 7 7 7 7 6 5 6 5 6 7 7 6 6 5 5 5 5 4 4 4 4 4 3
6 6 9 6 1 3 2 6 3 3 5 4 4 6 6 6 6 5 6 7 7 6 6 7 7 5 5 6 7 7 7 6 6 5 5 5 4 4 4 4 4 3 4 4
5 5 9 3 4 5 7 2 2 3 4 4 6 6 6 6 6 6 7 7 7 7 7 7 6 5 5 6 7 6 6 6 5 5 5 4 4 4 3 3 3 3 3 4
9 8 4 5 6 4 1 2 3 3 4 4 5 5 6 6 6 6 6 7 7 7 8 7 6 5 6 7 7 6 5 5 5 6 5 4 3 3 3 2 2 3 3 3
6 8 6 5 5 4 4 4 4 4 4 3 4 5 6 6 6 6 6 6 6 7 7 8 7 6 6 7 6 5 5 5 5 5 4 4 3 3 3 2 2 3 3 3
6 7 5 5 6 5 4 3 3 3 3 4 4 5 5 5 6 6 7 6 6 6 7 8 7 7 7 6 5 5 5 5 5 5 4 4 4 3 3 2 3 3 2 2
8 6 5 5 3 3 3 4 4 4 4 4 4 5 5 5 5 5 6 6 6 6 7 7 7 7 7 6 4 4 5 5 4 4 4 3 3 4 6 5 6 6 5 4
6 4 4 4 3 2 3 4 4 4 4 5 4 4 4 5 5 5 6 6 6 7 7 7 7 7 7 6 5 4 4 4 4 4 4 3 3 3 4 6 6 6 6 6
3 1 2 3 3 3 3 3 3 3 4 4 4 4 4 4 5 5 6 6 7 6 6 6 7 7 7 6 5 4 4 5 5 3 3 3 3 3 3 3 4 4 5 6
3 3 4 3 3 3 2 2 3 4 4 4 3 3 3 4 5 6 6 6 6 6 6 6 7 7 7 6 5 5 4 4 3 3 3 3 3 3 3 3 3 3 3 3
3 2 2 2 3 3 2 2 3 4 4 4 4 4 4 4 5 6 5 5 5 7 7 7 7 7 7 6 5 4 4 7 5 4 3 3 3 3 3 3 3 3 3 3
2 3 3 4 4 4 4 4 4 5 4 4 5 5 4 4 5 5 6 5 5 6 7 7 7 7 6 5 4 4 4 5 7 5 3 3 3 3 3 3 3 3 3 4
4 4 4 5 5 5 5 4 4 4 4 5 4 4 4 4 5 6 6 6 6 6 7 7 7 6 6 5 4 3 3 3 3 3 3 3 3 3 3 3 3 3 3 3
2 3 3 4 4 4 4 4 4 4 4 3 3 4 4 5 5 5 5 5 6 7 7 7 10 7 6 6 5 3 3 4 4 4 3 5 5 3 3 3 3 3 3 3
2 2 2 3 3 3 3 4 3 3 3 3 3 4 4 5 4 4 4 5 5 5 7 7 6 5 5 5 6 3 3 4 4 4 4 3 4 4 4 4 3 2 2 2
2 2 2 2 3 3 3 3 3 3 3 3 3 4 5 5 4 3 4 5 6 6 6 8 5 4 4 5 5 3 3 3 4 4 4 4 4 4 4 3 3 3 3 3
2 2 2 2 2 3 3 3 3 3 3 3 3 3 4 4 4 4 4 4 6 8 6 5 4 6 6 6 3 3 3 3 3 3 3 4 4 4 4 3 3 3 3 3
2 2 2 2 3 3 3 2 2 2 3 3 4 4 4 4 3 3 5 4 5 8 6 5 7 9 8 4 3 3 3 3 3 3 3 3 4 4 3 3 3 3 3 3
2 2 2 2 1 1 2 3 3 2 3 3 3 3 3 3 3 3 4 7 8 8 5 7 10 10 8 4 3 3 3 4 4 4 4 3 3 3 3 3 3 3 3 4
2 1 1 1 1 2 3 3 2 2 3 3 3 3 2 2 3 4 4 5 7 8 5 7 10 10 6 4 4 3 3 4 4 3 3 3 3 3 3 3 3 3 3 3
1 2 2 2 2 2 2 1 2 2 2 3 3 3 3 3 3 3 3 4 6 7 6 5 6 7 5 4 4 4 4 4 5 4 4 4 4 4 4 4 4 4 4 4
1 1 1 1 2 1 1 1 2 2 2 3 3 3 3 3 3 3 4 4 4 5 5 5 5 5 4 4 4 4 4 4 4 4 4 4 4 4 4 5 5 5 5 5
Wind_Direction
256 260 243 245 246 217 213 216 226 251 257 270 281 282 285 288 294 302 305 307 307 308 308 309 309 309 310 309 310 305 304 305 303 304 304 302 301 290 277 271 272 269 261 268
277 262 254 266 257 231 229 234 243 262 272 268 278 286 286 287 292 297 301 305 306 307 308 307 305 305 308 309 306 302 301 298 301 307 309 305 302 298 289 279 276 271 260 261
268 305 322 275 245 208 208 216 210 237 255 283 291 286 285 284 284 287 295 302 306 306 304 302 300 300 301 303 304 305 307 308 308 309 307 306 304 303 297 288 287 282 266 256
278 358 253 246 203 193 210 238 224 244 268 275 270 279 281 273 271 285 299 303 304 304 304 303 300 300 300 302 303 305 306 307 307 308 305 307 302 296 294 288 281 283 281 269
209 266 277 288 255 184 204 265 234 240 265 282 297 312 296 277 276 280 291 294 295 297 298 304 304 304 308 309 307 308 305 304 305 302 300 302 300 295 288 287 287 287 281 274
183 225 252 262 273 200 118 281 259 227 259 278 331 304 291 303 311 308 308 307 307 311 314 315 310 309 309 308 309 304 302 300 300 299 299 298 295 295 289 290 290 299 297 291
208 232 263 265 235 118 175 263 277 232 250 240 228 246 281 305 310 310 312 313 317 318 317 312 313 313 310 308 303 299 300 301 301 300 297 292 295 296 294 297 301 305 304 309
183 212 256 218 142 187 231 270 252 254 251 247 259 277 292 301 307 313 317 318 320 320 315 314 317 315 308 303 300 302 304 305 303 301 298 302 304 305 304 301 306 307 309 313
197 218 249 178 200 229 229 254 265 268 273 264 274 282 294 300 302 307 309 313 316 314 314 316 317 313 303 302 308 310 311 311 310 303 302 304 302 302 304 302 300 305 305 305
242 261 263 249 252 268 257 255 271 276 281 275 273 284 294 300 306 309 310 311 315 317 317 318 318 314 305 307 313 315 314 313 312 310 305 303 303 297 290 286 284 288 291 295
251 275 296 270 246 252 266 276 283 290 276 272 276 285 287 293 297 301 307 311 313 311 310 312 316 316 313 315 319 319 315 311 312 312 309 313 315 311 304 283 271 279 274 272
240 237 227 257 257 234 251 266 270 281 290 290 273 277 287 289 292 297 302 308 312 311 312 312 315 316 317 315 314 315 317 317 314 313 313 315 318 322 327 319 321 315 312 309
240 253 238 262 279 256 254 264 267 265 268 285 288 280 286 294 300 306 309 312 311 309 310 313 316 320 323 325 317 311 307 312 312 316 315 316 317 321 325 332 332 327 326 324
247 249 268 260 265 275 272 277 281 284 282 282 290 299 300 303 308 310 308 309 309 309 313 315 318 320 322 326 321 315 311 312 314 310 309 311 312 310 310 317 325 327 329 332
258 242 242 258 274 289 297 313 315 308 309 311 308 306 304 305 303 302 306 313 316 317 317 319 320 319 324 327 325 321 316 314 312 310 308 306 309 312 313 314 314 315 326 334
273 276 265 265 275 289 300 296 287 288 294 296 300 302 298 294 296 302 310 319 321 319 318 318 315 316 321 324 322 322 319 319 321 318 317 321 323 322 319 316 319 322 324 323
245 268 266 271 274 281 273 264 261 269 277 281 286 296 303 307 311 313 314 314 310 307 309 310 311 316 319 320 317 315 315 319 322 323 325 323 321 318 316 314 316 318 317 321
234 242 242 244 254 267 276 275 271 272 271 271 285 294 297 297 300 304 309 315 319 319 315 313 315 321 321 321 319 316 317 318 322 321 319 320 316 313 316 318 318 316 322 334
261 256 262 263 258 255 263 269 272 273 275 276 278 280 284 286 292 301 309 316 318 317 319 319 323 327 322 320 324 319 321 323 324 320 317 317 323 326 324 320 319 325 329 330
275 274 279 286 283 269 269 274 276 277 275 268 273 286 295 297 300 305 307 301 295 293 304 314 320 319 318 315 320 321 321 320 320 320 320 320 320 323 323 320 320 323 326 328
265 269 277 287 292 287 276 273 272 275 280 269 265 276 285 294 300 304 308 307 307 307 312 317 322 316 314 315 319 320 316 315 319 320 320 319 319 320 322 325 327 325 325 325
254 256 266 277 283 291 292 284 273 275 281 281 280 286 295 302 307 305 292 287 302 318 325 315 313 316 324 323 321 319 317 317 316 316 315 314 315 316 318 321 323 321 322 321
255 254 261 269 270 280 296 292 281 276 275 278 281 284 287 289 292 297 306 306 307 318 325 314 321 326 329 334 329 322 317 313 309 307 305 305 306 309 312 314 313 312 312 312
257 261 272 286 295 301 302 302 303 298 290 284 281 280 287 300 302 290 291 310 322 325 324 323 331 334 337 343 329 322 315 310 305 306 306 306 307 308 309 309 309 309 307 307
251 259 268 280 282 281 285 303 317 318 317 315 314 314 306 288 287 304 311 313 323 331 330 331 335 339 343 336 327 317 310 303 302 305 310 312 312 312 310 308 305 303 302 301
249 251 254 256 262 275 284 292 300 305 312 316 319 320 322 320 313 317 321 323 327 332 335 331 332 335 337 332 327 323 318 317 321 322 316 311 311 309 306 305 304 301 298 294
281 286 293 304 306 299 292 285 287 295 298 300 308 315 323 328 330 330 329 331 331 332 330 329 331 332 331 330 327 326 324 320 316 313 312 310 308 304 302 299 296 293 292 290
Height
1540 1536 1537 1536 1534 1536 1538 1536 1534 1524 1520 1508 1507 1506 1503 1501 1499 1497 1494 1492 1490 1487 1484 1481 1478 1475 1473 1470 1468 1466 1464 1461 1459 1458 1457 1456 1455 1455 1455 1455 1455 1455 1455 1457
1540 1534 1534 1531 1526 1528 1529 1529 1526 1522 1515 1504 1504 1503 1501 1498 1496 1494 1492 1489 1486 1484 1480 1477 1474 1472 1469 1466 1464 1462 1459 1457 1456 1455 1453 1452 1451 1450 1450 1450 1450 1450 1450 1451
1540 1536 1533 1528 1519 1521 1522 1520 1520 1517 1508 1503 1502 1500 1498 1495 1494 1491 1489 1486 1483 1480 1477 1474 1471 1468 1465 1463 1460 1458 1456 1453 1452 1450 1449 1448 1447 1446 1445 1445 1445 1444 1445 1446
1542 1540 1533 1515 1513 1513 1514 1513 1512 1508 1504 1501 1499 1497 1495 1493 1491 1488 1486 1483 1480 1477 1473 1470 1467 1464 1462 1459 1457 1454 1453 1451 1449 1447 1446 1444 1443 1442 1442 1441 1440 1440 1440 1441
1543 1542 1529 1514 1510 1511 1513 1509 1504 1504 1500 1499 1497 1494 1491 1490 1489 1486 1484 1481 1477 1474 1470 1466 1463 1461 1458 1455 1453 1451 1449 1447 1445 1444 1442 1441 1440 1439 1438 1438 1436 1435 1435 1436
1542 1539 1527 1510 1509 1507 1510 1509 1500 1499 1498 1497 1496 1496 1490 1487 1485 1483 1480 1477 1474 1470 1466 1463 1460 1457 1455 1452 1449 1447 1445 1443 1441 1440 1438 1437 1436 1435 1434 1433 1432 1431 1431 1432
1540 1537 1521 1509 1507 1508 1513 1504 1497 1496 1495 1495 1494 1493 1489 1485 1483 1480 1477 1474 1470 1467 1463 1460 1457 1454 1451 1449 1446 1444 1442 1440 1438 1436 1435 1433 1432 1431 1430 1429 1428 1428 1427 1427
1536 1535 1520 1504 1505 1507 1502 1497 1495 1494 1493 1492 1490 1488 1485 1483 1480 1477 1474 1470 1467 1464 1460 1457 1454 1452 1448 1446 1444 1441 1439 1437 1435 1433 1431 1430 1429 1427 1427 1426 1424 1424 1423 1423
1517 1510 1501 1499 1497 1497 1496 1495 1493 1492 1490 1489 1487 1484 1482 1480 1477 1474 1471 1468 1464 1461 1457 1454 1452 1449 1446 1443 1441 1438 1436 1433 1431 1430 1428 1427 1425 1424 1423 1422 1421 1420 1420 1420
1509 1501 1497 1496 1495 1494 1493 1492 1491 1490 1488 1486 1483 1481 1479 1477 1474 1471 1468 1465 1461 1458 1454 1451 1448 1446 1443 1441 1438 1435 1433 1431 1428 1426 1424 1423 1422 1421 1420 1419 1418 1418 1417 1416
1503 1497 1494 1492 1491 1491 1490 1489 1488 1486 1485 1483 1481 1478 1476 1473 1471 1468 1465 1462 1459 1455 1451 1448 1445 1443 1440 1438 1435 1433 1430 1428 1426 1424 1422 1420 1419 1418 1417 1416 1415 1415 1415 1414
1495 1491 1491 1488 1488 1488 1487 1486 1484 1483 1481 1480 1478 1475 1473 1470 1468 1466 1462 1459 1456 1452 1449 1445 1443 1440 1438 1436 1433 1430 1428 1426 1424 1422 1420 1418 1416 1415 1414 1414 1413 1413 1413 1413
1488 1487 1487 1486 1485 1485 1484 1483 1481 1480 1478 1476 1474 1473 1470 1467 1465 1463 1460 1456 1453 1450 1447 1443 1440 1437 1435 1433 1431 1428 1426 1423 1422 1420 1417 1415 1414 1412 1411 1411 1411 1411 1410 1410
1485 1485 1484 1483 1483 1482 1481 1480 1478 1477 1475 1474 1472 1470 1467 1465 1462 1460 1457 1454 1451 1448 1444 1441 1438 1435 1433 1431 1428 1425 1423 1421 1420 1418 1416 1414 1412 1411 1410 1409 1408 1407 1408 1408
1482 1482 1481 1480 1480 1479 1478 1476 1475 1473 1472 1470 1469 1467 1465 1462 1460 1457 1455 1452 1448 1445 1442 1439 1436 1433 1431 1428 1426 1424 1422 1420 1418 1416 1414 1412 1411 1410 1409 1408 1406 1405 1405 1405
1479 1478 1478 1477 1476 1476 1475 1473 1472 1470 1469 1467 1466 1464 1462 1460 1458 1455 1452 1449 1446 1443 1440 1437 1434 1432 1429 1427 1425 1422 1420 1418 1416 1414 1412 1411 1410 1409 1407 1406 1405 1403 1402 1402
1476 1474 1474 1474 1473 1472 1472 1471 1469 1468 1466 1465 1463 1461 1459 1457 1455 1452 1450 1447 1444 1441 1439 1436 1433 1430 1428 1426 1423 1421 1419 1417 1415 1413 1411 1410 1409 1407 1406 1404 1403 1402 1402 1401
1473 1472 1472 1471 1470 1469 1468 1468 1467 1465 1464 1462 1461 1459 1457 1454 1452 1450 1447 1445 1442 1439 1437 1434 1432 1429 1427 1424 1422 1419 1417 1415 1413 1412 1410 1409 1407 1406 1404 1403 1402 1401 1400 1400
1470 1470 1469 1468 1468 1467 1466 1465 1464 1462 1461 1460 1458 1456 1454 1452 1450 1448 1445 1442 1439 1436 1434 1432 1430 1427 1425 1422 1420 1418 1416 1414 1412 1410 1409 1408 1406 1404 1403 1402 1401 1400 1399 1399
1468 1467 1467 1466 1465 1464 1463 1462 1461 1460 1458 1457 1455 1453 1452 1450 1448 1445 1443 1440 1438 1435 1433 1430 1428 1426 1423 1421 1419 1417 1415 1413 1411 1409 1408 1406 1405 1403 1402 1400 1400 1399 1398 1398
1465 1465 1464 1463 1463 1462 1461 1459 1458 1457 1456 1454 1453 1451 1449 1447 1446 1443 1441 1438 1436 1434 1431 1429 1426 1424 1422 1419 1417 1415 1414 1412 1410 1408 1407 1405 1404 1402 1401 1400 1399 1398 1397 1396
1463 1463 1462 1461 1460 1459 1458 1457 1456 1455 1453 1452 1450 1449 1447 1445 1443 1441 1439 1437 1434 1432 1429 1427 1424 1423 1420 1418 1416 1414 1412 1410 1409 1407 1406 1404 1403 1401 1400 1399 1398 1397 1396 1395
1461 1461 1460 1459 1458 1457 1456 1455 1454 1452 1451 1449 1448 1446 1445 1443 1441 1439 1436 1435 1432 1430 1427 1425 1423 1421 1419 1416 1414 1412 1411 1409 1407 1406 1404 1403 1401 1400 1398 1397 1396 1395 1394 1393
1459 1458 1458 1457 1456 1455 1454 1453 1452 1450 1449 1448 1446 1445 1443 1441 1439 1437 1435 1433 1430 1428 1425 1423 1421 1419 1417 1414 1412 1411 1409 1407 1405 1404 1402 1400 1399 1398 1396 1395 1394 1393 1392 1391
1457 1456 1455 1455 1454 1452 1452 1451 1449 1448 1447 1445 1444 1443 1441 1439 1437 1435 1433 1431 1428 1426 1423 1421 1419 1417 1415 1413 1411 1409 1407 1405 1403 1401 1400 1398 1397 1395 1394 1393 1391 1390 1389 1388
1455 1454 1453 1452 1452 1451 1449 1448 1447 1446 1445 1443 1442 1441 1439 1437 1436 1434 1432 1429 1427 1424 1422 1419 1417 1415 1413 1411 1409 1407 1405 1403 1401 1399 1398 1396 1394 1393 1391 1390 1389 1388 1387 1386
1453 1452 1451 1450 1449 1448 1447 1446 1445 1444 1443 1441 1440 1439 1437 1436 1434 1432 1430 1428 1425 1423 1421 1418 1416 1414 1411 1409 1407 1405 1403 1401 1399 1397 1395 1394 1392 1390 1389 1388 1386 1385 1384 1383